Hourly Weather Laszkar Gah

Today, 9 August, Sunday

Time Temperature Precipitation Wind Pressure Humidity
00:00 +31°C° 0 mm 3 mps 685 mmHg 51%
01:00 +30°C° 0 mm 2 mps 685 mmHg 56%
02:00 +30°C° 0 mm 1 mps 685 mmHg 57%
03:00 +29°C° 0 mm 1 mps 685 mmHg 58%
04:00 +28°C° 0 mm 0 mps 685 mmHg 54%
05:00 +29°C° 0 mm 0 mps 685 mmHg 52%
06:00 +30°C° 0 mm 0 mps 686 mmHg 49%
07:00 +33°C° 0 mm 1 mps 686 mmHg 47%
08:00 +35°C° 0 mm 1 mps 687 mmHg 42%
09:00 +37°C° 0 mm 2 mps 687 mmHg 37%
10:00 +39°C° 0 mm 3 mps 687 mmHg 32%
11:00 +42°C° 0 mm 4 mps 686 mmHg 27%
12:00 +43°C° 0 mm 4 mps 686 mmHg 23%
13:00 +46°C° 0 mm 5 mps 686 mmHg 18%
14:00 +46°C° 0 mm 5 mps 685 mmHg 17%
15:00 +47°C° 0 mm 5 mps 685 mmHg 15%
16:00 +47°C° 0 mm 6 mps 684 mmHg 13%
17:00 +46°C° 0 mm 6 mps 684 mmHg 15%
18:00 +44°C° 0 mm 6 mps 684 mmHg 16%
19:00 +41°C° 0 mm 6 mps 683 mmHg 17%
20:00 +40°C° 0 mm 6 mps 683 mmHg 16%
21:00 +39°C° 0 mm 6 mps 684 mmHg 16%
22:00 +38°C° 0 mm 7 mps 684 mmHg 15%
23:00 +36°C° 0 mm 6 mps 684 mmHg 15%

Tomorrow, 10 August, Monday

Time Temperature Precipitation Wind Pressure Humidity
00:00 +35°C° 0 mm 5 mps 684 mmHg 15%
01:00 +34°C° 0 mm 4 mps 683 mmHg 15%
02:00 +33°C° 0 mm 3 mps 683 mmHg 16%
03:00 +30°C° 0 mm 3 mps 683 mmHg 17%
04:00 +29°C° 0 mm 3 mps 683 mmHg 18%
05:00 +30°C° 0 mm 3 mps 683 mmHg 17%
06:00 +31°C° 0 mm 3 mps 684 mmHg 16%
07:00 +33°C° 0 mm 3 mps 684 mmHg 14%
08:00 +35°C° 0 mm 3 mps 685 mmHg 13%
09:00 +37°C° 0 mm 3 mps 685 mmHg 11%
10:00 +39°C° 0 mm 3 mps 685 mmHg 10%
11:00 +41°C° 0 mm 2 mps 685 mmHg 8%
12:00 +42°C° 0 mm 2 mps 685 mmHg 7%
13:00 +44°C° 0 mm 1 mps 684 mmHg 6%
14:00 +44°C° 0 mm 1 mps 684 mmHg 6%
15:00 +46°C° 0 mm 2 mps 683 mmHg 6%
16:00 +46°C° 0 mm 2 mps 683 mmHg 6%
17:00 +43°C° 0 mm 2 mps 682 mmHg 7%
18:00 +40°C° 0 mm 2 mps 682 mmHg 8%
19:00 +37°C° 0 mm 2 mps 682 mmHg 10%
20:00 +36°C° 0 mm 2 mps 682 mmHg 9%
21:00 +34°C° 0 mm 2 mps 682 mmHg 8%
22:00 +32°C° 0 mm 2 mps 682 mmHg 8%
23:00 +31°C° 0 mm 2 mps 682 mmHg 8%

Day after tomorrow, 11 August, Tuesday

Time Temperature Precipitation Wind Pressure Humidity
00:00 +31°C° 0 mm 3 mps 682 mmHg 9%
01:00 +31°C° 0 mm 3 mps 682 mmHg 10%
02:00 +30°C° 0 mm 3 mps 682 mmHg 11%
03:00 +29°C° 0 mm 3 mps 682 mmHg 13%
04:00 +28°C° 0 mm 3 mps 682 mmHg 14%
05:00 +29°C° 0 mm 3 mps 683 mmHg 13%
06:00 +30°C° 0 mm 3 mps 683 mmHg 13%
07:00 +31°C° 0 mm 3 mps 684 mmHg 12%
08:00 +35°C° 0 mm 2 mps 684 mmHg 11%
09:00 +37°C° 0 mm 2 mps 684 mmHg 10%
10:00 +39°C° 0 mm 2 mps 685 mmHg 8%
11:00 +41°C° 0 mm 2 mps 684 mmHg 7%
12:00 +43°C° 0 mm 2 mps 684 mmHg 6%
13:00 +45°C° 0 mm 2 mps 684 mmHg 5%
14:00 +46°C° 0 mm 2 mps 684 mmHg 5%
15:00 +46°C° 0 mm 2 mps 683 mmHg 4%
16:00 +47°C° 0 mm 2 mps 683 mmHg 4%
17:00 +43°C° 0 mm 2 mps 682 mmHg 5%
18:00 +40°C° 0 mm 3 mps 682 mmHg 5%
19:00 +38°C° 0 mm 3 mps 682 mmHg 6%
20:00 +37°C° 0 mm 3 mps 682 mmHg 7%
21:00 +36°C° 0 mm 3 mps 682 mmHg 7%
22:00 +35°C° 0 mm 2 mps 683 mmHg 7%
23:00 +34°C° 0 mm 2 mps 683 mmHg 8%

12 August, Wednesday

Time Temperature Precipitation Wind Pressure Humidity
00:00 +32°C° 0 mm 2 mps 682 mmHg 9%
01:00 +30°C° 0 mm 1 mps 682 mmHg 11%
02:00 +30°C° 0 mm 2 mps 683 mmHg 11%
03:00 +30°C° 0 mm 2 mps 683 mmHg 12%
04:00 +30°C° 0 mm 3 mps 683 mmHg 13%
05:00 +30°C° 0 mm 3 mps 683 mmHg 13%
06:00 +31°C° 0 mm 3 mps 684 mmHg 13%
07:00 +32°C° 0 mm 2 mps 684 mmHg 13%
08:00 +35°C° 0 mm 2 mps 685 mmHg 11%
09:00 +37°C° 0 mm 2 mps 685 mmHg 10%
10:00 +39°C° 0 mm 2 mps 685 mmHg 9%
11:00 +42°C° 0 mm 3 mps 685 mmHg 8%
12:00 +44°C° 0 mm 3 mps 685 mmHg 7%
13:00 +46°C° 0 mm 3 mps 685 mmHg 6%
14:00 +46°C° 0 mm 3 mps 684 mmHg 6%
15:00 +47°C° 0 mm 3 mps 684 mmHg 6%
16:00 +47°C° 0 mm 3 mps 683 mmHg 5%
17:00 +45°C° 0 mm 3 mps 683 mmHg 6%
18:00 +42°C° 0 mm 3 mps 683 mmHg 7%
19:00 +39°C° 0 mm 3 mps 683 mmHg 8%
20:00 +38°C° 0 mm 3 mps 683 mmHg 8%
21:00 +36°C° 0 mm 3 mps 683 mmHg 9%
22:00 +35°C° 0 mm 3 mps 684 mmHg 9%
23:00 +34°C° 0 mm 3 mps 683 mmHg 10%

13 August, Thursday

Time Temperature Precipitation Wind Pressure Humidity
00:00 +32°C° 0 mm 2 mps 683 mmHg 11%
01:00 +31°C° 0 mm 2 mps 683 mmHg 11%
02:00 +30°C° 0 mm 2 mps 683 mmHg 12%
03:00 +29°C° 0 mm 2 mps 683 mmHg 12%
04:00 +29°C° 0 mm 2 mps 683 mmHg 13%
05:00 +30°C° 0 mm 2 mps 684 mmHg 12%
06:00 +31°C° 0 mm 3 mps 684 mmHg 11%
07:00 +33°C° 0 mm 3 mps 685 mmHg 11%
08:00 +35°C° 0 mm 3 mps 685 mmHg 9%
09:00 +38°C° 0 mm 3 mps 686 mmHg 7%
10:00 +40°C° 0 mm 2 mps 686 mmHg 6%
11:00 +43°C° 0 mm 3 mps 686 mmHg 5%
12:00 +44°C° 0 mm 3 mps 685 mmHg 5%
13:00 +46°C° 0 mm 3 mps 685 mmHg 4%
14:00 +48°C° 0 mm 4 mps 684 mmHg 5%
15:00 +48°C° 0 mm 4 mps 684 mmHg 5%
16:00 +49°C° 0 mm 5 mps 683 mmHg 5%
17:00 +46°C° 0 mm 5 mps 683 mmHg 6%
18:00 +43°C° 0 mm 5 mps 683 mmHg 7%
19:00 +40°C° 0 mm 5 mps 682 mmHg 8%
20:00 +38°C° 0 mm 4 mps 682 mmHg 8%
21:00 +36°C° 0 mm 3 mps 683 mmHg 9%
22:00 +34°C° 0 mm 2 mps 683 mmHg 10%
23:00 +32°C° 0 mm 2 mps 683 mmHg 10%

14 August, Friday

Time Temperature Precipitation Wind Pressure Humidity
00:00 +30°C° 0 mm 1 mps 682 mmHg 11%
01:00 +29°C° 0 mm 1 mps 682 mmHg 12%
02:00 +29°C° 0 mm 1 mps 682 mmHg 12%
03:00 +28°C° 0 mm 1 mps 682 mmHg 13%
04:00 +28°C° 0 mm 2 mps 682 mmHg 13%
05:00 +30°C° 0 mm 2 mps 683 mmHg 12%
06:00 +32°C° 0 mm 2 mps 683 mmHg 10%
07:00 +35°C° 0 mm 3 mps 684 mmHg 9%
08:00 +38°C° 0 mm 3 mps 685 mmHg 8%
09:00 +40°C° 0 mm 3 mps 685 mmHg 7%
10:00 +44°C° 0 mm 3 mps 685 mmHg 5%
11:00 +45°C° 0 mm 2 mps 685 mmHg 5%
12:00 +47°C° 0 mm 2 mps 685 mmHg 4%
13:00 +48°C° 0 mm 2 mps 684 mmHg 4%
14:00 +48°C° 0 mm 2 mps 684 mmHg 4%
15:00 +48°C° 0 mm 3 mps 683 mmHg 4%
16:00 +50°C° 0 mm 4 mps 683 mmHg 3%
17:00 +47°C° 0 mm 4 mps 682 mmHg 5%
18:00 +43°C° 0 mm 4 mps 682 mmHg 6%
19:00 +41°C° 0 mm 4 mps 681 mmHg 7%
20:00 +37°C° 0 mm 3 mps 681 mmHg 8%
21:00 +35°C° 0 mm 2 mps 681 mmHg 9%
22:00 +32°C° 0 mm 1 mps 681 mmHg 10%
23:00 +32°C° 0 mm 1 mps 681 mmHg 10%
Show more